Location: Devore Heights
(34.2372°N, 117.4156°W)
Time: 08:29:47
(UTC+00:00)

Vanguard 1 Rocket - Pass Details

Date: 15 September 2024
Orbit: 650 x 4218 km, 34.3° (Epoch: 09 October)

Event Time Altitude Azimuth Distance (km) Brightness Sun altitude
Rises 14:53:38 0° 278° (W) 6,783 11.2 15.7°
Reaches altitude 10° 14:57:27 10° 278° (W) 6,125 11.1 16.5°
Maximum altitude 15:19:54 85° 194° (SSW) 4,181 11.1 21.1°
Drops below altitude 10° 15:45:30 10° 110° (ESE) 6,812 13.7 26.2°
Sets 15:50:03 0° 110° (ESE) 7,528 13.4 27.1°
